Kokomo, IN

7:37 PM EST on February 25, 2017 (GMT -0500)
Kokomo Municipal

Weather History for KOKK - September, 2013

Change the Weather History Date:

Thursday, September 19, 2013

  Actual Average (KGUS) Record (KGUS)
Temperature  
Mean Temperature 73 °F -  
Max Temperature 82 °F 72 °F 87 °F (2002)
Min Temperature 64 °F 51 °F 38 °F (2012)
Cooling Degree Days 8    
Growing Degree Days 23 (Base 50)    
Moisture  
Dew Point 66 °F    
Average Humidity 82    
Maximum Humidity 94    
Minimum Humidity 65    
Precipitation  
Precipitation 1.28 in - - ()
Sea Level Pressure  
Sea Level Pressure 29.99 in    
Wind  
Wind Speed 8 mph (South)    
Max Wind Speed 17 mph    
Max Gust Speed 20 mph    
Visibility 8 miles    
Events Thunderstorm    
Averages and records for this station are not official NWS values.
T = Trace of Precipitation, MM = Missing Value Source: NWS Daily Summary

Daily Weather History Graph

Daily Weather History Graph

Search for Another Location

Airport or City:

Trip Planner

Search our weather history database for the weather conditions in past years. The results will help you decide how hot, cold, wet, or windy it might be!

Date:

Astronomy

Sep. 19, 2013 Rise Set
Actual Time 6:29 AM CDT 6:46 PM CDT
Civil Twilight 6:01 AM CDT 7:13 PM CDT
Nautical Twilight 5:29 AM CDT 7:45 PM CDT
Astronomical Twilight 4:57 AM CDT 8:17 PM CDT
Moon 6:43 PM CDT (9/19) 6:37 AM CDT (9/19)
Length of Visible Light 13h 11m
Length of Day
12h 16m
Full, 100% of the Moon is Illuminated
Sep 19
Full
Sep 26
Last Quarter
Oct 4
New
Oct 11
First Quarter
Oct 18
Full

Hourly Weather History & Observations

Time (CDT) Temp. Heat Index Dew Point Humidity Pressure Visibility Wind Dir Wind Speed Gust Speed Precip Events Conditions
12:15 AM 69.8 °F - 64.4 °F 83% 30.02 in 10.0 mi South 8.1 mph - N/A   Mostly Cloudy
12:35 AM 68.0 °F - 64.4 °F 88% 30.01 in 7.0 mi South 8.1 mph - N/A   Scattered Clouds
12:55 AM - - - N/A% 30.00 in 7.0 mi South 8.1 mph - N/A Thunderstorm Mostly Cloudy
1:15 AM - - - N/A% 30.03 in 5.0 mi NNW 8.1 mph - N/A Thunderstorm Mostly Cloudy
1:35 AM - - - N/A% 30.05 in 2.5 mi West 17.3 mph - 0.56 in Thunderstorm Thunderstorm
1:55 AM 66.2 °F - 62.6 °F 88% 30.02 in 10.0 mi West 5.8 mph - 0.82 in Thunderstorm Thunderstorm
2:15 AM 64.4 °F - 62.6 °F 94% 30.04 in 10.0 mi SSW 6.9 mph - 0.05 in Thunderstorm Overcast
2:35 AM 64.4 °F - 62.6 °F 94% 30.03 in 10.0 mi WSW 6.9 mph - 0.11 in Thunderstorm Thunderstorm
2:55 AM 64.4 °F - 62.6 °F 94% 30.02 in 10.0 mi South 8.1 mph - 0.15 in Thunderstorm Thunderstorm
3:15 AM 64.4 °F - 62.6 °F 94% 30.02 in 10.0 mi SSW 5.8 mph - 0.03 in Thunderstorm Overcast
3:35 AM 64.4 °F - 62.6 °F 94% 30.01 in 9.0 mi Calm Calm - 0.07 in Thunderstorm Mostly Cloudy
3:55 AM 64.4 °F - 62.6 °F 94% 30.01 in 10.0 mi WSW 6.9 mph - 0.09 in   Mostly Cloudy
4:15 AM 64.4 °F - 62.6 °F 94% 30.03 in 10.0 mi WSW 8.1 mph - N/A   Partly Cloudy
4:35 AM 64.4 °F - 60.8 °F 88% 30.02 in 10.0 mi WSW 5.8 mph - N/A   Scattered Clouds
4:55 AM - - - N/A% 30.01 in 10.0 mi SW 6.9 mph - N/A   Scattered Clouds
5:15 AM - - - N/A% 30.02 in 10.0 mi NW 3.5 mph - N/A   Mostly Cloudy
5:35 AM - - - N/A% 30.02 in 9.0 mi SSW 3.5 mph - 0.03 in   Mostly Cloudy
5:55 AM - - - N/A% 30.02 in 10.0 mi SE 4.6 mph - 0.04 in   Mostly Cloudy
6:15 AM - - - N/A% 30.04 in 8.0 mi Calm Calm - 0.03 in   Mostly Cloudy
6:35 AM - - - N/A% 30.05 in 5.0 mi Calm Calm - 0.10 in   Mostly Cloudy
6:55 AM 64.4 °F - 62.6 °F 94% 30.04 in 4.0 mi South 5.8 mph - 0.17 in   Overcast
7:15 AM 64.4 °F - 62.6 °F 94% 30.05 in 8.0 mi SSW 3.5 mph - N/A   Overcast
7:35 AM 64.4 °F - 62.6 °F 94% 30.05 in 10.0 mi SSW 5.8 mph - N/A   Overcast
7:55 AM 64.4 °F - 62.6 °F 94% 30.05 in 10.0 mi SSW 4.6 mph - N/A   Overcast
8:15 AM 66.2 °F - 62.6 °F 88% 30.05 in 9.0 mi South 5.8 mph - N/A   Mostly Cloudy
8:35 AM - - - N/A% 30.03 in 10.0 mi SSW 9.2 mph - N/A   Mostly Cloudy
8:55 AM - - - N/A% 30.03 in 9.0 mi SSE 6.9 mph - N/A   Partly Cloudy
9:15 AM - - - N/A% 30.04 in 10.0 mi SE 5.8 mph - N/A   Partly Cloudy
9:35 AM 68.0 °F - 64.4 °F 88% 30.04 in 10.0 mi South 6.9 mph - N/A   Mostly Cloudy
9:55 AM 68.0 °F - 64.4 °F 88% 30.05 in 10.0 mi South 8.1 mph - N/A   Overcast
10:15 AM 69.8 °F - 64.4 °F 83% 30.04 in 9.0 mi SSE 5.8 mph - 0.01 in Thunderstorm Overcast
10:35 AM 69.8 °F - 66.2 °F 88% 30.04 in 9.0 mi South 10.4 mph - 0.01 in Thunderstorm Mostly Cloudy
10:55 AM 69.8 °F - 66.2 °F 88% 30.04 in 9.0 mi South 11.5 mph 16.1 mph 0.01 in   Mostly Cloudy
11:15 AM 71.6 °F - 66.2 °F 83% 30.04 in 8.0 mi South 11.5 mph 18.4 mph N/A   Mostly Cloudy
11:35 AM 71.6 °F - 66.2 °F 83% 30.03 in 9.0 mi SSW 11.5 mph - N/A   Mostly Cloudy
11:55 AM 71.6 °F - 66.2 °F 83% 30.02 in 10.0 mi South 13.8 mph - N/A   Mostly Cloudy
12:15 PM 73.4 °F - 66.2 °F 78% 30.01 in 10.0 mi South 15.0 mph 18.4 mph N/A   Mostly Cloudy
12:35 PM 73.4 °F - 68.0 °F 83% 30.01 in 10.0 mi South 11.5 mph - N/A   Scattered Clouds
12:55 PM 75.2 °F - 68.0 °F 78% 30.00 in 10.0 mi South 12.7 mph 17.3 mph N/A   Scattered Clouds
1:15 PM 77.0 °F - 69.8 °F 78% 30.00 in 10.0 mi South 13.8 mph 19.6 mph N/A   Partly Cloudy
1:35 PM 77.0 °F - 69.8 °F 78% 29.99 in 10.0 mi South 11.5 mph - N/A   Scattered Clouds
1:55 PM 78.8 °F - 69.8 °F 74% 29.99 in 10.0 mi SSW 11.5 mph - N/A   Partly Cloudy
2:15 PM 80.6 °F 83.9 °F 69.8 °F 70% 29.98 in 10.0 mi SSW 11.5 mph - N/A   Clear
2:35 PM 80.6 °F 83.9 °F 69.8 °F 70% 29.98 in 10.0 mi SSW 8.1 mph 17.3 mph N/A   Partly Cloudy
2:55 PM 80.6 °F 83.9 °F 69.8 °F 70% 29.98 in 10.0 mi SSE 8.1 mph - N/A   Scattered Clouds
3:15 PM 80.6 °F 83.9 °F 69.8 °F 70% 29.97 in 10.0 mi South 9.2 mph - N/A   Overcast
3:35 PM 82.4 °F 86.3 °F 69.8 °F 66% 29.96 in 10.0 mi SSW 8.1 mph - N/A   Mostly Cloudy
3:55 PM 82.4 °F 86.3 °F 69.8 °F 66% 29.96 in 10.0 mi SSW 10.4 mph - N/A   Mostly Cloudy
4:15 PM 80.6 °F 83.2 °F 68.0 °F 65% 29.95 in 10.0 mi South 5.8 mph - N/A   Overcast
4:35 PM 75.2 °F - 68.0 °F 78% 29.96 in 10.0 mi ENE 10.4 mph 16.1 mph N/A   Overcast
4:55 PM 75.2 °F - 68.0 °F 78% 29.96 in 10.0 mi ESE 8.1 mph 19.6 mph N/A   Overcast
5:15 PM 75.2 °F - 68.0 °F 78% 29.94 in 10.0 mi ESE 11.5 mph 18.4 mph N/A   Overcast
5:35 PM 75.2 °F - 68.0 °F 78% 29.94 in 10.0 mi SE 8.1 mph - N/A   Scattered Clouds
5:55 PM 75.2 °F - 68.0 °F 78% 29.93 in 10.0 mi SSE 6.9 mph - N/A   Clear
6:15 PM 75.2 °F - 68.0 °F 78% 29.92 in 9.0 mi SSE 10.4 mph - N/A   Clear
6:35 PM 75.2 °F - 66.2 °F 73% 29.90 in 9.0 mi SSE 12.7 mph - N/A   Clear
6:55 PM 75.2 °F - 66.2 °F 73% 29.88 in 8.0 mi South 12.7 mph - N/A   Clear
7:15 PM 75.2 °F - 66.2 °F 73% 29.88 in 10.0 mi SSE 10.4 mph - N/A   Clear
7:35 PM 75.2 °F - 66.2 °F 73% 29.89 in 8.0 mi South 11.5 mph - N/A   Clear
7:55 PM 73.4 °F - 66.2 °F 78% 29.92 in 3.0 mi South 6.9 mph - N/A   Clear
8:15 PM 73.4 °F - 66.2 °F 78% 29.92 in 7.0 mi SSE 5.8 mph - N/A   Clear
8:35 PM 71.6 °F - 66.2 °F 83% 29.93 in 5.0 mi South 6.9 mph - N/A   Clear
8:55 PM 71.6 °F - 66.2 °F 83% 29.94 in 5.0 mi SSE 4.6 mph - N/A   Clear
9:15 PM 71.6 °F - 66.2 °F 83% 29.94 in 5.0 mi SSE 5.8 mph - N/A   Clear
9:35 PM 71.6 °F - 66.2 °F 83% 29.94 in 4.0 mi SSE 6.9 mph - N/A   Clear
9:55 PM 71.6 °F - 66.2 °F 83% 29.93 in 5.0 mi SSE 8.1 mph - N/A   Clear
10:15 PM 71.6 °F - 66.2 °F 83% 29.92 in 5.0 mi South 8.1 mph - N/A   Clear
10:35 PM 71.6 °F - 66.2 °F 83% 29.92 in 5.0 mi South 9.2 mph - N/A   Clear
10:55 PM 71.6 °F - 66.2 °F 83% 29.91 in 5.0 mi South 9.2 mph - N/A   Clear
11:15 PM 71.6 °F - 66.2 °F 83% 29.92 in 5.0 mi South 9.2 mph - N/A   Clear
11:35 PM 71.6 °F - 66.2 °F 83% 29.92 in 5.0 mi South 10.4 mph - N/A   Clear
11:55 PM 73.4 °F - 68.0 °F 83% 29.92 in 7.0 mi SSW 11.5 mph 17.3 mph N/A   Clear